Погода в Тайпо

Китай     19°19′01″N   109°01′51″E
темп.,
°C
ветер,
м/с
пор.,
м/с
влажн.,
%
обл.,
%
осадки,
мм/ч
давл.,
гПа
погр.,
м
16 мая, вс
вс1623:00+27ююв22623 0.0 100747
02:00+25ю23665 0.0 100661
05:00+24ююв357489 0.0 1006107
08:00+28юв236542 0.0 1008275
11:00+36ю343938 0.0 10071321
14:00+39ю343374 0.0 10052804
17:00+36юв234010 0.0 10031293
20:00+29в12642 0.0 100541
17 мая, пн
пн1723:00+27юв21685 0.0 100720
02:00+26ю22744 0.0 100624
05:00+24ююв22805 0.0 100623
08:00+28юв22695 0.0 1008252
11:00+36с12405 0.0 10081353
14:00+37сз644010 0.0 10061710
17:00+32с336390 1.2 1006587
20:00+27вюв2280100 1.3 100768
18 мая, вт
вт1823:00+26ююв228171 0.0 100831
02:00+25ююв118594 0.0 100716
05:00+24ююв118699 0.0 100713
08:00+28вюв117397 0.0 1009216
11:00+35ююз134770 0.0 10091546
14:00+37зсз4538100 0.0 10052276
17:00+32ссв2259100 0.2 1005604
20:00+28св117743 0.2 100621
19 мая, ср
ср1923:00+26ю117739 0.0 100813
02:00+24ю228294 0.0 100733
05:00+24вюв1185100 0.0 100621
08:00+27ю0172100 0.0 1007214
11:00+35ю2439100 0.0 10071254
14:00+38ю443196 0.0 10042462
17:00+35ю13406 0.0 10031337
20:00+29ююв2455100 0.0 100494
20 мая, чт
чт2023:00+26юв22677 0.0 100540
02:00+25ю357444 0.0 1005152
05:00+25ююв3678100 0.1 1005159
08:00+29ююв4663100 0.1 1006328
11:00+35ююз5844100 0.0 10061471
14:00+36юз5639100 0.0 10032035
17:00+36юз673896 0.0 10021787
20:00+31ююв335485 0.0 100455